Select NOAA-NWS Forecast Office Text Products

(Product availability varies with seasons, forecast office, and weather.)

Regional Weather Roundup for Pendleton, OR

To Select Another NWS Office Click on Map or Choose from List

County Warning Area MAP
Select Forecast Office:   Select Product:  
000
ASUS46 KPDT 092125
RWRPDT
PENDLETON REGIONAL WEATHER ROUNDUP
NATIONAL WEATHER SERVICE PENDLETON OREGON
100 PM PST FRI DEC 9 2022

NOTE: FAIR INDICATES FEW OR NO CLOUDS BELOW 12,000 FEET WITH NO
SIGNIFICANT WEATHER AND/OR OBSTRUCTIONS TO VISIBILITY.

# INDICATES UNOFFICIAL STATION AND DATA

WAZ520-092210-
EAST SLOPES OF WASHINGTON CASCADES

CITY            SKY/WX      TMP DP  RH  WIND    PRES   REMARKS
#ELK HTS DOT    N/A         25  24  96  E2      N/A
#GLENWOOD       N/A         34  32  92  CALM    29.95F
#NILE           N/A         26  22  85  CALM    29.17F
#TROUT LAKE 1NE N/A         32  31  96  CALM    29.93F
#TROUT LAKE 1E  N/A         33  31  92  CALM    29.85F
$$

WAZ521-092210-
SIMCOE HIGHLANDS

CITY            SKY/WX      TMP DP  RH  WIND    PRES   REMARKS
#SATUS PASS DOT N/A         30  27  88  SW6     N/A
#CENTERVILLE 1SWN/A         33  32  96  E5      29.91F
#LYLE 6NE       N/A         31  30  96  N3      29.93F
#PITT 4SE       N/A         30  29  96  CALM    29.92R
$$

WAZ026-092210-
KITTITAS VALLEY

CITY            SKY/WX      TMP DP  RH  WIND    PRES   REMARKS
ELLENSBURG AP   CLOUDY      22  17  81  SE3     29.87F HAZE
#ELLENSBURG CWU N/A         19  17  92  CALM    29.94F
#ELLENSBURG 1E  N/A         18  16  92  CALM    30.02F
#MANASTASH RDG  N/A         27  N/A N/A S2      N/A
#ROCKY CYN DOT  N/A         21  21  100 CALM    N/A
#RYEGRASS DOT   N/A         20  18  92  CALM    N/A
#THORP 6N       N/A         27  24  88  CALM    29.87F
$$

WAZ027-092210-
YAKIMA VALLEY

CITY            SKY/WX      TMP DP  RH  WIND    PRES   REMARKS
YAKIMA AIRPORT  MOCLDY      23  19  84  CALM    29.93F FOG
YAKIMA-VAGABOND N/A         21  18  88  CALM    29.86F
#MABTON         N/A         25  24  96  CALM    29.94F
#NACHES 2SW     N/A         27  25  92  CALM    29.90S
#OUTLOOK DOT    N/A         23  23  100 CALM    N/A
#PARKER DOT     N/A         23  22  96  CALM    N/A
#TERRACE HTS    N/A         27  23  85  CALM    29.95F
#I82 S UMTANUM RN/A         28  26  92  NE2     N/A
#UNION GAP DOT  N/A         23  22  96  N1      N/A
#ZILLAH DOT     N/A         22  N/A N/A CALM    N/A
$$

WAZ028-092210-
LOWER COLUMBIA BASIN...WASHINGTON

CITY            SKY/WX      TMP DP  RH  WIND    PRES   REMARKS
HANFORD         FRZFOG      26  24  92  N3      29.97F VSB 1/4
PASCO           CLOUDY      26  22  85  W8      29.98F FOG
PROSSER AWOS    N/A         25  25  100 CALM    29.97F
RICHLAND AWOS   CLOUDY      29  27  92  NW6     29.99F FOG
#BASIN CITY 5SW N/A         28  27  96  W2      29.94F
#BENTON CITY    N/A         26  23  88  CALM    29.91F
#CONNELL 5N     N/A         30  29  96  CALM    30.00F
#ELTOPIA 6NW    N/A         32  32  100 CALM    28.92F
#KAHLOTUS       N/A         33  32  96  S7      29.99F
#KENNEWICK 3S   N/A         29  26  88  CALM    30.00F
#PROSSER DOT    N/A         26  25  96  CALM    N/A
#SAGEMOOR 2W    N/A         30  29  96  W3      29.98F
#TOUCHET 2S     N/A         37  33  85  CALM    29.96F
$$

WAZ029-092210-
FOOTHILLS OF THE BLUES...WASHINGTON

CITY            SKY/WX      TMP DP  RH  WIND    PRES   REMARKS
WALLA WALLA AP  FAIR        43  26  51  S8      29.93F
#CLYDE 6NW      N/A         39  32  76  SW3     29.93F
#DELANEY DOT    N/A         45  29  53  S3      N/A
#LOWDEN 2SE     N/A         38  34  85  CALM    29.83F
#PRESCOTT       N/A         40  36  85  CALM    29.97F
#WALLA WALLA 5E N/A         46  32  58  S9      N/A
#WHITMAN MISSIONN/A         41  38  89  CALM    30.01F
$$

WAZ030-092210-
BLUE MOUNTAINS...WASHINGTON

CITY            SKY/WX      TMP DP  RH  WIND    PRES   REMARKS
$$

ORZ009-041-WAZ024-092210-
COLUMBIA RIVER GORGE

CITY            SKY/WX      TMP DP  RH  WIND    PRES   REMARKS
HOOD RIVER AP   CLOUDY      34  32  92  N3      29.87F
THE DALLES AP   CLOUDY      36  31  82  W3      29.92F
#CELILO DOT     N/A         36  31  82  NE3     N/A
#LYLE           N/A         33  31  92  CALM    29.93F
#MARYHILL       N/A         32  31  96  SE1     N/A
#RUFUS DOT      N/A         32  31  96  SE8     N/A

$$

ORZ510-092210-
NORTH CENTRAL OREGON

CITY            SKY/WX      TMP DP  RH  WIND    PRES   REMARKS
#ANTELOPE       N/A         38  27  64  CALM    29.79F
#COW CYN RST AREN/A         36  24  61  SE13    N/A    WCI 27
#DUFUR          N/A         31  29  92  CALM    29.90F
#GRASS VALLEY 1SN/A         37  30  75  S8      29.85F
#KENT DOT       N/A         35  N/A N/A SE9     N/A
#MORO SCHOOL    N/A         56  45  66  S2      29.73F
#SHANIKO 5WSW   N/A         33  23  66  CALM    N/A
#WAPANITIA AIRPON/A         38  30  73  S5      29.93F
#WASCO DOT      N/A         34  32  92  E6      N/A
#WASCO 5NE      N/A         31  29  92  E6      29.93F
$$

ORZ511-092210-
CENTRAL OREGON

CITY            SKY/WX      TMP DP  RH  WIND    PRES   REMARKS
BEND AIRPORT    FAIR        37  25  61  SE8     29.83F
MADRAS AIRPORT  CLOUDY      41  27  57  SE20G28 29.83F WCI 32
PRINEVILLE AP   FAIR        37  23  56  SE14    29.84F WCI 28
REDMOND AIRPORT MOCLDY      39  25  57  S13     29.83F WCI 31
#ASHWOOD SCHOOL N/A         39  26  59  SE10    29.81F
#CULVER         N/A         38  26  62  SE12    29.21F WCI 30
#PRINEVILLE     N/A         37  25  61  NE5     30.04F

$$


ORZ509-092210-
EAST SLOPES OF OREGON CASCADES

CITY            SKY/WX      TMP DP  RH  WIND    PRES   REMARKS
SISTERS AWOS    N/A         37  27  67  SE6     29.78F
SUNRIVER AWOS   MOCLDY      30  25  81  S18     29.84F HAZE WCI 18
#CAMP SHERMAN   N/A         35  28  75  CALM    29.92F
#LA PINE DOT    N/A         33  23  66  SE10    N/A
#LAVA BUTTE DOT N/A         30  24  78  SW10G28 N/A
#SISTERS ODOT   N/A         37  25  61  SE1     N/A
#WANOGA BUTTE D N/A         22  20  92  W13     N/A    WCI 10

$$

ORZ044-092210-
LOWER COLUMBIA BASIN...OREGON

CITY            SKY/WX      TMP DP  RH  WIND    PRES   REMARKS
HERMISTON       MOSUNNY     32  30  92  CALM    29.94F FOG
#BOARDMAN SCHOOLN/A         31  29  92  CALM    29.94F
#ECHO 8SW       N/A         29  28  96  CALM    29.96F
#I-84 EX 198 DOTN/A         41  26  55  NE16    N/A    WCI 33
#UMATILLA       N/A         31  30  96  CALM    29.99R
$$

ORZ507-092210-
NORTHERN FOOTHILLS OF THE BLUES

CITY            SKY/WX      TMP DP  RH  WIND    PRES   REMARKS
PENDLETON AIRPT FAIR        42  30  62  VRB3    29.92F
#ATHENA         N/A         44  29  55  SE7     29.96F
#CAYUSE         N/A         44  28  53  SE12    29.94F WCI 38
#HELIX SCHOOL   N/A         36  30  79  CALM    29.99F
#HOLDMAN 5SE    N/A         37  31  79  S2      29.92F
#HOLDMAN 6E     N/A         37  30  75  CALM    29.77F
#M-FREEWATER 5SEN/A         44  30  58  E8      29.91F
#PDT SUNRIDGE   N/A         40  35  82  CALM    29.89F
#PENDLETON 6SE  N/A         44  31  60  SE9     29.91F
#TUTUILLA       N/A         44  32  62  S5      29.98F
#UMAPINE 2E     N/A         43  33  67  CALM    29.96F

$$

ORZ508-092210-
SOUTHERN FOOTHILLS OF THE BLUES

CITY            SKY/WX      TMP DP  RH  WIND    PRES   REMARKS
LEXINGTON       MOSUNNY     41  28  59  SE16    29.90F WCI 33
#AJAX           N/A         37  27  67  S6      29.84F
#HEPPNER EOC    N/A         38  27  64  SE14    29.87F WCI 30
#HEPPNER 4NE    N/A         37  26  64  SE3     29.94F
#OLEX 4N        N/A         29  27  92  CALM    29.96F
#RUGGS 2SW      N/A         35  27  72  S18G28  29.98F WCI 24

$$

ORZ502-503-092210-
BLUE MOUNTAINS

CITY            SKY/WX      TMP DP  RH  WIND    PRES   REMARKS
#BATTLE MTN DOT N/A         29  21  72  S8      N/A
#LADD CYN SMT   N/A         28  26  92  CALM    N/A
#LADD CREEK ODOTN/A         32   9  37  W10     N/A
#N POWDER DOT   N/A         31  23  72  W2      N/A
#TOLLGATE       N/A         25  24  96  CALM    29.89F
#TROY SCHOOL    N/A         35  32  89  CALM    29.87F
#WESTON 4E      N/A         35  26  69  SE1     29.96F
$$

ORZ505-092210-
JOHN DAY BASIN

CITY            SKY/WX      TMP DP  RH  WIND    PRES   REMARKS
JOHN DAY        CLOUDY      33  20  58  SW3     29.93F
#DAYVILLE SCHOOLN/A         37  24  59  S9      29.91F
#MITCHELL 8NW   N/A         32  23  69  SE12G28 29.93F WCI 23
#MONUMENT HS    N/A         33  28  82  CALM    29.89F
#MT. VERNON 5SE N/A         31  22  69  E6      29.91F
$$

ORZ506-092210-
OCHOCO AND JOHN DAY HIGHLANDS

CITY            SKY/WX      TMP DP  RH  WIND    PRES   REMARKS
#BUCK CREEK DOT N/A         27  24  88  S13     N/A    WCI 16
#HORSE RIDGE DO N/A         31  21  66  SE10    N/A
#KEYES SMT DOT  N/A         28  21  75  E6      N/A
#PAULINA ODOT   N/A         31  26  81  N2      N/A
#PRAIRIE CITY   N/A         37  21  52  N1      29.89F
#SENECA 9NW     N/A         27  23  85  CALM    30.08F
$$

ORZ049-092210-
GRANDE RONDE VALLEY

CITY            SKY/WX      TMP DP  RH  WIND    PRES   REMARKS
LA GRANDE       MOSUNNY     33  26  75  S16     29.96F WCI 23
#COVE SCHOOL    N/A         36  26  67  E3      29.95F
#ELGIN 1E       N/A         35  26  69  S3      N/A
#IMBLER SCHOOL  N/A         33  27  78  CALM    29.91F
#ISLAND CITY 4N N/A         41  39  93  E1      29.79F
#LADD CYN DOT   N/A         33  27  78  S13G25  N/A    WCI 24
#UNION 1S       N/A         35  27  72  SE13    30.05F WCI 26
$$

ORZ050-092210-
WALLOWA COUNTY

CITY            SKY/WX      TMP DP  RH  WIND    PRES   REMARKS
JOSEPH AIRPORT  MOCLDY      30  21  69  MISG    29.90F
#ENTERPRISE HS  N/A         33  26  75  CALM    29.93F
#IMNAHA SCHOOL  N/A         42  26  53  N9      30.05F
#JOSEPH 3N      N/A         29  22  75  CALM    29.95F
#LOSTINE 3SE    N/A         35  27  72  CALM    29.98F
#MT HOWARD 8000 N/A         16  11  80  S5      29.68F
#WALLOWA SCHOOL N/A         34  25  69  E1      30.07F



$$

Previous Regional Weather Roundups may be found at
NWS Pendleton, OR (PDT) Office Regional Weather Roundups.
(Click 'Previous Version' there to view past versions successively.
Some may differ only in time posted.)

San Juan, PRHonolulu, HI Lake Charles, LA Pueblo, CO Corpus Christi, TX St. Louis, MO Reno, NV Raleigh, NC  Newport/Morehead City, NC Dodge City, KS Houston/Galveston, TX San Joaquin Valley/Hanford, CA Louisville, KY Fort Worth, TX Pittsburgh, PA Austin/San Antonio, TX Sacramento, CA Jackson, MS Phoenix, AZ Northern Indiana, IN Flagstaff, AZ Tallahassee, FL Springfield, MO Riverton, WY Blacksburg, VA Sioux Falls, SD El Paso Area, NM Columbia, SC Wilmington, NC Greenville-Spartanburg, SC Eureka, CA Midland/Odessa, TX Tucson, AZ Goodland, KS Huntsville, AL Amarillo, TX Norman, OK Lubbock, TX Marquette, MI Little Rock, AR Pendleton, OR Missoula, MT Binghamton, NY Boston, MA Green Bay, WI Billings, MT Baltimore/Washington San Diego, CA Tampa Bay, FL Morristown, TN Twin Cities, MN Brownsville, TX Portland, OR Des Moines, IA Memphis, TN Pocatello, ID San Angelo, TX Jacksonville, FL Aberdeen, SD Quad Cities, IA/IL Charleston, SC New Orleans/Baton Rouge, LA Peachtree City, GA Shreveport, LA Grand Rapids, MI Medford, OR Albany, NY Wichita, KS Gray/Portland, ME Spokane, WA Boise, ID Denver/Boulder, CO Great Falls, MT Caribou, ME Key West, FL Miami-South Florida, FL New York City/Upton, NY Melbourne, FL Hastings, NE Paducah, KY Glasgow, MT Bismarck, ND Charleston WV Omaha/Valley, NE Buffalo, NY Jackson, KY Kansas City/Pleasant Hill, MO Gaylord, MI Cheyenne, WY Grand Forks, ND Detroit/Pontiac, MI Central Illinois, IL Burlington, VT Salt Lake City, UT Topeka, KS Nashville, TN Milwaukee/Sullivan, WI Albuquerque, NM Las Vegas, NV Wakefield, VA La Crosse, WI Birmingham, AL Los Angeles/Oxnard, CA Chicago, IL Seattle, WA Rapid City, SD Indianapolis, IN Philadelphia/Mount Holly, PA Mobile/Pensacola State College, PA Cleveland, OH Elko, NV Wilmington, OH Grand Junction, CO North Platte, NE Tulsa, OK San Francisco/Monterey Bay Area, CA Duluth, MN Anchorage, AK Fairbanks, AK Juneau, AK Tiyan, GU

Products Courtesy of NOAA-NWS
NWS Information Parsing Script by Ken True at Saratoga Weather - WFO and Products Scripts by SE Lincoln Weather.
Mapping by Curly at Michiana Weather and by Tom at My Mishawaka Weather.